Simultaneous Nadir Overpasses (SNOs) Predictions

Prediction of SNOs between NOAA-19 and TERRA Satellite Orbit:

Table of predicted SNOs for the next 14.0 days since TLE Epoch: 11/6/2021
Index Date (NOAA-19) Time (NOAA-19) Lat,Lon (NOAA-19) SZA (NOAA-19 ) Date (TERRA) Time (TERRA) Lat,Lon (TERRA) SZA (TERRA ) Distance(km) Time Diff (sec)
1 11/06/2021 05:45:37 80.52, 128.15 98.53 11/06/2021 05:46:43 80.51, 128.27 98.57 2.26 66
2 11/06/2021 06:36:35 -80.50, -64.19 81.44 11/06/2021 06:36:10 -80.51, -64.14 81.44 1.30 25
3 11/08/2021 12:09:41 80.50, 32.54 99.22 11/08/2021 12:09:51 80.52, 32.53 99.23 1.67 10
4 11/10/2021 17:42:47 -80.52, 129.05 80.17 11/10/2021 17:43:33 -80.52, 129.08 80.15 0.66 46
5 11/10/2021 18:33:46 80.51, -63.44 99.86 11/10/2021 18:33:00 80.49, -63.58 99.81 3.15 46
6 11/13/2021 00:06:52 -80.51, 33.25 79.55 11/13/2021 00:06:41 -80.52, 33.27 79.55 0.63 11
7 11/15/2021 05:39:56 80.52, 129.94 101.02 11/15/2021 05:40:22 80.51, 129.76 101.01 3.37 26
8 11/15/2021 06:30:57 -80.51, -62.58 78.96 11/15/2021 06:29:49 -80.51, -62.59 78.99 0.41 68
9 11/17/2021 11:13:03 -80.52,-133.35 78.44 11/17/2021 11:14:03 -80.53,-133.45 78.42 1.98 60
10 11/17/2021 12:04:00 80.51, 34.22 101.59 11/17/2021 12:03:29 80.53, 34.16 101.59 2.41 31



Historial Predications of SNOs between NOAA-19 and TERRA
